Location: Newark
(42.8481°N, 0.4872°E)
Time: 23:56:26
(UTC+00:00)

Transit 2A - Pass Details

Date: 02 November 2020
Orbit: 595 x 963 km, 66.7° (Epoch: 03 December)

Event Time Altitude Azimuth Distance (km) Brightness Sun altitude
Rises 22:08:42 0° 167° (SSE) 3,606 - -55.9°
Reaches altitude 10° 22:11:50 10° 152° (SSE) 2,685 - -56.3°
Maximum altitude 22:16:25 21° 105° (ESE) 1,996 - -56.8°
Drops below altitude 10° 22:20:59 10° 59° (ENE) 2,681 - -57.3°
Sets 22:24:06 0° 44° (NE) 3,599 - -57.7°
